Regional Weather Roundup
Issued by NWS

Home | Current Version | Previous Version | Graphics & Text | Print | Product List | Glossary On
Versions: 1 2 3 4 5 6 7 8 9 10 11 12 13 14 15 16 17 18 19 20 21 22 23 24 25 26 27 28 29 30 31 32 33 34 35 36 37 38 39 40 41 42 43 44 45 46 47 48 49 50
000
ASUS45 KBOU 171807
RWRCO

WEATHER ROUNDUP FOR COLORADO
NATIONAL WEATHER SERVICE DENVER/BOULDER CO
1100 AM MST WED DEC 17 2014

NOTE: "FAIR" INDICATES FEW OR NO CLOUDS BELOW 12000 FEET WITH NO
SIGNIFICANT WEATHER AND/OR OBSTRUCTIONS TO VISIBILITY.

COZ001>005-013-030-031-171900-
...NORTHWEST COLORADO...

CITY           SKY/WX    TMP DP  RH WIND       PRES   REMARKS
CRAIG          CLOUDY    24  23  96 SW3       30.01F
HAYDEN         CLOUDY    28  23  80 E3        29.99F
MEEKER         PTSUNNY   29  25  85 CALM      29.99F
MOUNT WERNER   NOT AVBL
STEAMBOAT SPGS CLOUDY    26  24  90 CALM      29.99F
WALDEN         PTSUNNY   19  18  93 CALM      29.97F
$$

COZ006>008-011-171900-
...WEST CENTRAL VALLEYS...

CITY           SKY/WX    TMP DP  RH WIND       PRES   REMARKS
GRAND JUNCTION LGT RAIN  34  33  96 CALM      30.00F FOG
MONTROSE       PTSUNNY   37  29  72 CALM      30.01F
EAGLE          NOT AVBL
RIFLE          CLOUDY    32  28  85 CALM      30.00F
DELTA          PTSUNNY   37  35  89 NW3       30.01F
NUCLA          DRIZZLE   36  32  87 CALM      30.04S
$$

COZ017>023-064>068-171900-
...SOUTHWEST COLORADO...

CITY           SKY/WX    TMP DP  RH WIND       PRES   REMARKS
DURANGO        CLOUDY    38  27  64 E5        30.00S
CORTEZ         CLOUDY    37  28  70 CALM      30.00F
PAGOSA SPRINGS CLOUDY    33  21  62 CALM      30.00F
TELLURIDE      CLOUDY    31  22  69 CALM      30.00S
WOLF CREEK PAS SNOW      18  18 100 MISG      30.00F VSB 1/2
$$

COZ009-010-012-014-032>034-037-058>063-171900-
...CENTRAL COLORADO...

CITY           SKY/WX    TMP DP  RH WIND       PRES   REMARKS
ASPEN          MOSUNNY   31  21  66 N5        29.96F WCI  26
BUENA VISTA    CLOUDY    29  15  55 CALM      29.99F
COPPER MTN     CLOUDY    25  12  58 S9        29.99F WCI  15
BERTHOUD PASS  CLOUDY    16  10  79 MISG      30.00F
COTTONWOOD PAS MIX PCPN  30  19  64 CALM      29.98F
GUNNISON       PTSUNNY   19  10  68 CALM      30.05F
KREMMLING      LGT SNOW  19  14  79 CALM      30.04F
LEADVILLE      CLOUDY    21  13  71 S7        29.96F WCI  12
MONARCH PASS   CLOUDY    19  16  86 MISG      30.09F
SALIDA         CLOUDY    30  18  60 CALM      30.07F
SUNLIGHT       CLOUDY    27  23  86 CALM      30.00F FOG
WILKERSON PASS LGT SNOW  23  18  80 W5        30.01F WCI  17
$$

COZ069>075-171900-
...SAN LUIS VALLEY/SANGRE DE CRISTO MOUNTAINS...

CITY           SKY/WX    TMP DP  RH WIND       PRES   REMARKS
ALAMOSA        CLOUDY    28  17  63 CALM      30.01F
LA VETA PASS   LGT SNOW  27  21  80 SW3       29.99F
SAGUACHE       CLOUDY    30  21  69 NW12      30.00F WCI  21
$$

COZ035-036-038>040-171900-
...NORTHERN COLORADO FRONT RANGE...

CITY           SKY/WX    TMP DP  RH WIND       PRES   REMARKS
DENVER INTL AP PTSUNNY   35  22  58 CALM      29.96F
DMNS CITY PARK   N/A     34  23  65 CALM      29.94F
AURORA         PTSUNNY   34  22  63 VRB1      29.96F
FRONT RANGE AP PTSUNNY   37  27  65 CALM      29.97F
ERIE MUNI ARPT   N/A     35  25  66 MISG      29.97F
BOULDER MUN AP PTSUNNY   36  28  75 CALM      29.95F
CENTENNIAL     PTSUNNY   37  23  56 NE3       29.94F
BROOMFIELD     PTSUNNY   37  27  65 CALM      29.96F
FORT COLLINS   PTSUNNY   30  25  80 CALM      29.98F
LONGMONT       PTSUNNY   38  27  63 CALM      29.98F
$$

COZ041-046-047-076>085-087-088-171900-
...PIKES PEAK/PALMER DIVIDE AND SOUTHERN FOOTHILLS...

CITY           SKY/WX    TMP DP  RH WIND       PRES   REMARKS
COLO. SPRINGS  CLOUDY    38  23  55 W3        29.95F
A. F. ACADEMY  CLOUDY    40  23  49 N3        29.94F
ELLICOTT       NOT AVBL
FALCON         CLOUDY    41  20  42 W6        29.96F
FORT CARSON    PTSUNNY   35  23  61 NE3       29.93F
LIMON          CLOUDY    24  21  88 SE3       29.97F
MONUMENT HILL  CLOUDY    37  25  60 W5        29.94F
TRINIDAD       CLOUDY    40  25  55 CALM      29.94F
$$

COZ042>045-048>051-090-091-171900-
...NORTHEAST COLORADO...

CITY           SKY/WX    TMP DP  RH WIND       PRES   REMARKS
GREELEY ARPT   MOSUNNY   28  18  64 CALM      29.97F
AKRON          FOG       21  21 100 S8        30.00S VSB 1/2 WCI  11
BURLINGTON     FOG       24  22  91 SE7       30.04S VSB 1/2 WCI  16
WRAY           CLOUDY    25  25 100 E9        30.07F FOG     WCI  15
STERLING       CLOUDY    25  23  93 SW3       30.03F FOG
HOLYOKE        NOT AVBL
FORT MORGAN    PTSUNNY   18  15  90 CALM      30.01F
$$

COZ086-089-092>099-171900-
...SOUTHEAST COLORADO...

CITY           SKY/WX    TMP DP  RH WIND       PRES   REMARKS
PUEBLO         NOT AVBL
LA JUNTA       CLOUDY    28  22  78 E7        30.02S WCI  21
LAMAR          CLOUDY    28  24  85 N7        30.01F WCI  21
SPRINGFIELD      N/A     33  26  75 N7        29.96F WCI  27
$$


USA.gov is the U.S. government's official web portal to all federal, state and local government web resources and services.